RH
100 100 100 93 100 100 100 100 100 100 100 100 86 72 52 52 55 49 38 26 21 17 13 11 10 8 8 7 7 8 9 10 11 11 10 10 11 14 16 20 23 20 13 7
100 100 100 99 96 100 100 100 100 93 99 100 100 98 71 56 57 50 44 34 26 25 20 14 12 11 10 9 9 9 9 11 12 14 13 13 14 17 18 18 19 19 10 6
100 100 100 98 92 98 99 99 100 100 100 98 99 100 97 51 50 65 44 32 28 27 30 29 27 26 25 19 17 18 17 18 18 20 20 21 22 20 20 18 16 14 10 6
93 89 99 100 100 100 100 100 100 100 100 100 100 99 54 82 85 77 82 73 48 34 26 25 27 31 38 38 36 40 34 32 29 28 27 26 26 24 22 18 14 12 9 8
57 74 81 97 100 100 100 100 100 100 100 100 98 83 95 100 100 100 100 95 68 58 43 37 36 36 52 66 50 64 55 55 46 36 35 31 28 25 21 17 14 11 10 8
62 56 60 81 84 97 99 100 100 95 95 99 100 100 100 100 100 100 100 93 98 91 64 59 52 53 69 100 99 80 79 79 64 52 41 35 45 40 32 19 19 14 10 8
74 71 58 76 68 71 82 87 96 97 96 86 82 84 87 82 82 88 74 90 86 87 99 99 83 78 81 100 100 100 100 100 78 58 45 37 32 34 44 39 22 19 15 12
92 92 91 63 59 45 55 56 69 86 90 93 96 93 87 74 62 62 52 44 53 49 45 46 86 99 99 100 100 100 100 100 100 69 53 41 36 31 28 24 22 23 24 24
93 96 96 94 95 98 80 59 48 43 47 56 73 89 95 94 95 71 60 59 53 80 60 50 40 58 95 100 100 100 100 100 99 78 58 49 44 38 31 28 26 24 24 22
90 95 100 100 94 95 98 100 100 100 70 44 35 35 44 57 65 70 55 72 86 76 72 83 89 68 66 94 100 100 100 100 100 95 70 58 50 41 35 30 28 25 31 36
100 100 100 100 100 100 100 100 98 96 98 99 99 80 52 36 38 38 47 56 63 54 49 50 74 81 62 88 95 100 100 100 100 100 86 68 48 39 32 28 30 30 27 50
96 100 100 100 100 100 100 100 100 95 90 84 80 77 75 73 58 45 37 31 37 59 52 44 65 91 75 62 79 92 98 100 100 100 97 75 60 43 36 30 24 23 29 30
49 47 52 69 92 99 98 100 100 100 95 87 74 61 55 64 67 60 57 40 31 30 32 34 36 53 73 50 48 58 91 99 100 99 99 98 81 67 52 42 32 29 35 49
37 32 28 28 29 29 46 84 98 100 96 88 80 87 93 77 54 36 36 39 44 46 38 27 23 22 25 30 32 35 52 75 71 78 82 92 97 96 64 90 72 52 54 83
53 59 58 53 44 33 25 23 24 48 75 87 90 86 69 61 58 61 63 54 50 39 28 30 31 25 22 26 22 28 25 39 52 55 46 67 87 87 66 98 100 78 67 79
46 40 40 49 55 56 54 45 35 24 21 24 52 76 86 92 92 79 75 68 52 45 42 42 41 40 43 40 27 20 18 18 19 31 36 65 61 77 74 84 100 100 78 100
56 49 45 40 38 41 43 46 49 48 35 22 18 19 28 60 75 78 76 78 78 61 58 55 48 38 59 63 71 60 28 20 16 15 37 67 63 73 74 83 100 100 82 100
52 56 54 48 43 40 40 42 42 40 39 41 43 35 23 16 21 52 59 67 79 85 82 75 63 57 54 65 77 87 62 36 32 28 22 59 60 60 94 94 100 100 100 92
55 50 47 52 52 49 44 40 40 41 43 42 38 36 37 42 36 17 15 19 29 63 82 85 84 69 60 69 84 83 98 89 50 52 39 39 45 42 77 100 100 100 100 100
34 36 39 39 37 40 48 49 48 47 44 43 42 42 40 35 34 38 35 16 13 16 32 74 88 93 78 66 90 93 90 100 99 86 76 46 37 33 46 88 100 100 100 100
24 23 23 23 26 31 30 30 32 36 41 43 44 43 42 40 39 34 32 36 33 14 13 21 59 90 97 80 82 84 99 100 100 100 93 72 50 37 63 100 100 100 100 100
29 31 29 28 27 28 28 26 26 27 30 31 29 29 32 36 38 39 37 32 31 36 23 13 16 51 91 99 89 81 82 97 100 99 100 92 63 59 100 100 100 100 100 100
34 43 47 46 45 51 59 56 55 50 48 42 39 37 36 31 25 26 35 37 35 31 32 32 16 15 50 99 100 96 78 82 98 91 77 84 77 98 100 100 100 100 100 100
25 38 49 64 77 82 81 71 58 52 52 53 54 53 52 49 38 27 28 28 32 35 32 31 34 23 15 33 99 100 100 95 100 100 85 66 66 100 92 100 96 90 100 100
18 27 38 48 61 64 61 52 48 49 51 51 49 47 46 46 49 49 44 37 31 28 31 32 31 34 33 16 20 95 100 100 100 100 100 100 99 70 94 100 100 97 100 100
19 20 30 41 44 44 44 47 52 54 54 53 49 45 43 42 40 39 38 37 38 38 34 31 30 30 32 35 20 17 81 100 100 100 100 100 100 100 94 90 94 100 100 100
22 27 34 41 44 49 55 57 56 54 53 59 66 63 62 61 58 53 49 42 34 30 30 34 33 29 30 31 36 28 16 58 100 100 96 100 100 100 100 100 100 100 100 100
Wind_Speed
26 36 41 44 52 61 55 50 57 47 59 63 51 44 45 43 42 44 47 50 52 55 59 62 61 59 58 58 58 58 59 59 59 58 57 55 52 51 50 48 47 46 45 45
21 27 34 39 39 55 58 50 49 59 56 49 57 55 49 47 41 39 41 43 43 46 53 56 58 58 57 58 59 60 60 60 59 59 58 57 55 53 52 50 49 48 46 46
22 23 24 30 36 33 48 48 45 51 60 54 50 58 45 42 46 41 42 43 45 45 46 49 51 53 54 56 58 58 59 60 59 58 57 57 56 55 54 52 51 49 48 47
16 26 24 27 26 27 28 34 35 36 49 59 59 51 44 49 54 50 45 42 46 49 51 50 49 49 49 50 52 51 53 53 55 55 55 55 55 55 53 52 51 50 49 47
6 22 27 26 25 26 26 27 28 30 39 37 46 53 54 52 47 43 44 45 42 45 49 51 53 53 50 48 50 48 49 48 49 51 52 52 53 52 51 50 49 48 48 47
5 4 13 23 29 28 28 28 28 30 32 36 39 43 40 39 39 43 44 39 39 47 48 49 51 52 52 47 44 46 47 48 49 49 49 50 48 48 49 49 46 47 46 46
6 4 1 11 22 31 29 31 30 31 31 33 37 39 38 41 40 42 43 51 45 45 44 45 47 50 52 52 49 47 46 46 46 47 47 48 49 49 46 46 44 42 42 43
7 5 3 0 4 13 22 27 34 35 33 32 33 34 36 37 40 42 47 49 52 51 49 50 48 44 46 48 49 51 51 51 50 49 48 49 48 48 47 47 44 41 40 40
11 9 6 4 1 1 5 12 17 25 31 37 40 39 38 37 38 37 42 48 54 52 53 48 55 54 50 47 45 48 50 51 50 51 51 49 48 49 50 48 45 41 39 38
14 14 11 9 7 4 2 3 5 9 15 22 27 33 42 45 44 43 49 47 46 45 47 57 54 54 51 52 49 52 54 55 53 53 50 49 49 48 48 50 47 42 38 36
7 6 6 4 2 3 3 3 5 6 8 11 15 19 28 39 47 53 53 50 56 56 52 51 51 55 52 52 55 58 56 56 57 57 54 52 49 48 46 45 42 40 40 38
11 10 8 7 6 7 6 5 4 5 5 6 7 11 12 17 28 38 44 46 56 57 54 55 53 56 55 53 56 55 57 60 60 57 53 52 48 45 44 44 43 40 39 39
18 17 15 14 14 14 12 10 9 8 9 8 10 13 16 16 14 19 30 36 44 47 52 56 59 62 63 58 57 59 62 61 52 50 52 55 49 45 44 43 41 40 40 41
19 20 21 20 19 19 19 19 17 16 14 15 15 14 14 15 15 19 20 24 26 29 37 45 49 53 59 66 66 63 64 60 55 53 48 49 51 49 48 43 46 42 42 47
21 20 20 20 20 20 20 22 22 22 21 20 20 19 18 19 21 23 24 24 25 26 29 35 43 49 53 54 62 75 71 65 62 59 55 53 50 52 51 50 53 47 47 50
22 20 21 21 20 20 21 21 22 23 25 26 26 25 24 24 24 25 25 26 25 27 30 34 39 44 46 48 53 60 69 73 73 69 63 60 57 57 55 56 59 54 50 55
22 22 21 21 21 20 20 21 21 21 22 25 28 29 30 30 30 30 29 27 27 28 29 27 30 33 32 37 39 42 49 57 66 72 70 67 63 63 60 59 58 64 56 60
20 21 21 22 22 23 23 22 21 22 22 23 23 24 26 30 34 35 34 32 31 29 28 29 29 30 36 34 35 34 37 51 69 74 76 73 64 62 65 63 62 63 61 62
18 20 22 22 23 23 25 25 25 24 24 25 25 25 26 26 27 30 35 36 35 33 32 30 28 30 28 30 34 34 31 39 55 65 70 74 70 67 69 67 63 62 64 69
20 20 21 22 24 25 26 28 27 28 28 27 28 28 28 27 28 28 28 31 35 36 35 34 31 27 28 27 27 27 31 35 44 52 60 67 69 71 70 72 69 66 64 55
21 21 20 20 21 24 26 27 28 29 32 32 31 31 31 31 30 29 30 30 29 32 36 36 34 32 26 27 27 29 26 30 38 48 51 55 66 70 63 63 72 68 63 63
22 21 21 20 19 20 22 24 26 26 28 30 31 32 33 35 34 33 32 31 31 30 30 34 36 35 31 27 26 29 31 27 33 40 50 52 57 69 67 61 63 63 56 54
22 21 20 20 20 20 21 21 23 24 25 26 28 29 31 33 35 36 35 34 33 32 32 31 32 37 36 32 29 28 32 32 30 37 40 46 53 66 70 67 66 62 65 60
22 22 21 20 19 20 21 23 24 25 25 26 27 28 28 30 33 33 35 36 36 35 34 33 33 32 37 38 35 30 29 32 35 32 33 35 47 58 67 68 69 70 67 64
27 25 24 24 24 25 26 27 27 28 29 30 30 29 29 29 30 32 32 33 35 37 37 37 35 35 34 37 39 37 32 33 38 40 40 37 37 49 63 57 62 71 69 69
29 28 27 27 27 28 29 30 31 31 30 30 30 29 28 28 29 30 32 33 34 35 36 38 39 37 38 37 38 41 40 37 34 37 44 45 42 42 49 52 58 70 70 63
30 29 28 29 31 32 31 31 30 28 26 24 25 27 27 27 27 27 28 30 33 35 36 37 38 41 40 40 41 40 43 43 41 37 40 43 44 41 41 46 51 56 60 69
Wind_Direction
213 223 223 225 226 224 225 212 204 210 221 220 224 220 229 235 238 240 240 240 240 239 238 238 238 237 237 236 235 237 237 235 235 236 237 238 237 238 239 241 242 243 244 246
212 212 220 222 228 227 227 224 216 222 221 218 221 222 226 234 233 237 234 229 229 229 227 228 229 230 229 230 230 231 233 233 233 233 234 235 236 237 238 240 242 244 246 248
221 213 213 220 227 225 226 233 225 217 218 225 226 233 228 233 236 236 237 232 229 226 225 224 223 223 224 224 226 229 230 231 231 231 233 234 235 236 238 239 240 243 246 248
226 221 218 217 218 226 229 227 225 223 228 235 236 235 233 233 236 229 223 220 223 225 225 227 227 226 227 227 227 228 230 231 231 231 233 234 236 237 239 241 243 244 246 248
235 235 232 230 226 220 226 229 235 228 220 216 222 231 230 224 222 213 218 224 227 223 225 226 226 228 228 232 232 232 231 232 232 232 233 234 236 238 240 241 243 246 247 249
78 139 223 241 240 236 225 227 229 236 235 235 235 232 236 237 229 223 221 225 229 227 225 228 228 229 229 228 234 237 236 235 235 233 233 234 233 236 239 241 241 244 247 250
48 47 184 219 239 245 243 237 237 233 230 233 242 246 247 246 250 249 241 238 243 238 235 231 231 233 233 230 228 228 230 232 233 234 233 233 234 233 236 237 240 243 245 249
55 60 39 164 253 257 250 247 244 244 244 240 233 235 240 240 242 243 246 246 248 247 245 246 242 236 236 234 233 235 234 232 233 233 232 233 233 234 236 237 238 242 247 250
48 61 74 85 93 238 237 243 245 246 247 251 250 243 237 239 238 238 243 247 247 248 248 244 244 244 241 239 230 234 242 237 233 233 232 231 233 236 238 237 237 236 241 247
26 21 23 32 37 26 342 278 251 233 233 243 247 249 252 250 245 244 245 246 241 245 246 241 242 239 243 240 237 229 230 230 236 233 234 233 235 237 237 240 238 239 239 240
352 356 352 345 331 312 300 292 284 273 258 242 238 242 249 254 260 256 247 245 246 250 248 247 243 243 242 241 240 236 237 234 233 232 231 232 233 233 235 235 234 235 237 237
300 298 288 275 270 250 255 256 259 266 269 269 254 239 241 240 244 250 252 247 248 248 250 249 244 238 236 239 241 234 235 237 232 227 229 225 228 227 230 233 233 234 233 236
297 295 296 295 292 291 287 279 269 264 274 259 267 270 265 262 247 238 236 237 242 245 245 250 251 245 238 238 237 241 234 230 237 236 231 228 226 227 227 232 231 232 234 233
304 302 298 292 286 283 283 280 273 271 267 265 266 262 268 274 273 254 259 249 255 248 244 246 247 247 248 246 243 236 237 240 239 240 239 233 227 229 229 227 233 231 233 230
294 291 289 290 292 289 284 279 275 274 270 268 269 267 268 272 274 274 276 278 271 257 247 246 246 246 246 246 245 243 236 234 236 238 238 239 233 229 229 226 231 232 231 230
295 290 286 282 279 279 281 281 278 274 272 271 268 265 263 260 261 262 266 274 276 267 258 257 253 253 255 254 253 249 242 239 236 235 237 235 232 230 227 223 233 227 231 228
298 294 289 284 282 280 277 275 274 275 271 266 266 265 264 261 259 259 259 260 263 269 274 274 263 255 257 259 261 255 247 228 228 230 229 228 227 230 231 226 228 227 228 227
296 291 288 285 283 281 278 276 275 276 275 273 269 266 263 260 257 255 255 256 258 259 264 273 276 271 260 259 256 253 247 228 218 216 220 224 225 229 231 228 229 227 234 226
300 291 285 282 280 279 279 278 276 274 273 274 273 271 268 266 265 260 254 254 251 254 256 259 267 273 274 263 257 259 249 233 224 219 214 215 218 223 229 227 225 231 228 225
309 299 289 284 280 275 274 275 275 276 273 271 272 271 270 269 266 264 262 258 254 249 249 253 256 262 271 271 258 246 256 243 229 223 221 215 213 219 223 229 225 223 220 226
318 310 301 293 285 282 280 276 273 272 273 272 269 269 268 268 266 266 264 261 260 255 249 247 251 255 259 262 264 248 262 240 231 225 223 222 216 214 215 222 228 226 227 231
326 322 316 310 302 294 288 284 281 279 276 275 273 271 269 267 266 264 264 263 261 258 256 251 246 248 251 253 259 255 257 262 232 229 226 222 218 211 206 210 216 219 219 211
328 325 320 315 312 308 303 299 296 292 289 285 281 278 275 272 268 265 264 262 261 260 257 255 250 245 243 245 248 249 253 255 251 227 228 229 223 212 210 211 212 213 214 224
330 326 322 316 311 307 305 304 301 299 297 294 291 287 282 279 275 269 266 264 262 259 256 254 252 249 245 239 239 240 241 242 238 235 213 222 225 213 214 216 222 214 219 216
330 326 321 319 315 312 309 307 304 302 301 298 294 290 285 280 277 275 271 266 263 260 258 254 249 248 247 244 238 236 233 230 232 227 224 223 224 226 228 219 217 219 215 222
328 324 321 317 314 313 312 309 306 305 304 302 298 294 289 285 281 276 273 269 265 261 257 255 253 247 244 243 241 237 233 231 227 229 222 223 228 219 220 228 231 226 223 221
329 327 325 320 318 316 315 314 312 310 308 306 302 300 297 293 289 284 279 275 270 264 258 254 252 250 245 241 240 239 235 233 231 227 227 222 222 218 213 219 223 221 224 226